[[{"header":{"parameterUnit":"m.s-1","parameterCategory":1,"la1":30.2991,"la2":30.254,"lo1":-89.0895,"lo2":-89.0444,"dy":0.0017,"dx":0.0017,"nx":28,"ny":28,"refTime":"2024-03-23T03:00:00:Z","depth":0,"parameterNumber":2,"parameterNumberName":"U-component_of_WINDS"},"data":[0,0,0,0,0,0,0,0,0,0,0,0,0,0,0,0,0,0,0,0,0,0,0,0,0,0,0,0,0,0,0,0,0,0,0,0,0,0,0,0,0,0,0,0,0,0,0,0,0,0,0,0,0,0,0,0,0,0,-3.8533,-3.8533,0,-3.8578,-3.8578,-3.8579,-3.8546,-3.8545,-3.8544,-3.8542,-3.8589,-3.8591,-3.8594,0,0,0,0,0,0,0,0,0,0,0,0,0,-3.8422,-3.8425,-3.8533,-3.8533,-3.8534,-3.8577,-3.8578,-3.8579,-3.8547,-3.8545,-3.8543,-3.8542,-3.8588,-3.8591,-3.8594,0,0,0,0,0,0,0,0,0,0,0,0,0,-3.8469,-3.8425,-3.8533,-3.8523,-3.8523,-3.8577,-3.8578,-3.8579,-3.8547,-3.8545,-3.8543,-3.8541,-3.8587,-3.8591,-3.8594,-3.8661,0,0,-3.8606,-3.8608,0,0,0,0,0,0,0,0,-3.8467,-3.8473,-3.8524,-3.8524,-3.8524,-3.8554,-3.8556,-3.8606,-3.8548,-3.8538,-3.8542,-3.854,-3.8579,-3.8583,-3.8596,-3.8663,-3.8665,-3.8606,-3.8609,-3.861,-3.8611,0,0,0,0,0,0,0,-3.8463,-3.8471,-3.8551,-3.8525,-3.8525,-3.8518,-3.8522,-3.8565,-3.857,-3.8539,-3.8536,-3.8542,-3.8578,-3.8593,-3.8597,-3.8666,-3.8606,-3.861,-3.8612,-3.8614,-3.879,-3.8792,0,0,0,0,0,0,-3.8461,-3.8469,-3.8549,-3.8552,-3.8489,-3.8521,-3.8526,-3.8547,-3.8569,-3.8571,-3.8544,-3.854,-3.8587,-3.8593,-3.8599,-3.8678,-3.861,-3.8614,-3.8616,-3.8788,-3.8791,-3.8793,0,0,0,0,0,0,-3.8459,-3.8468,-3.8547,-3.851,-3.8519,-3.8525,-3.8549,-3.8549,-3.8563,-3.8573,-3.8574,-3.8557,-3.8586,-3.8593,-3.8646,-3.8679,-3.8616,-3.8619,-3.8785,-3.8789,-3.8792,-3.8837,0,0,0,0,0,0,-3.8455,-3.8468,-3.8492,-3.8511,-3.8521,-3.8593,-3.8551,-3.8551,-3.8569,-3.8565,-3.8586,-3.8588,-3.8585,-3.864,-3.865,-3.8683,-3.8622,-3.8782,-3.8787,-3.8791,-3.8832,-3.8841,-3.8849,0,0,0,0,0,-3.8452,-3.8503,-3.8493,-3.8503,-3.8552,-3.8595,-3.8601,-3.8596,-3.8572,-3.8597,-3.8605,-3.8587,-3.8675,-3.8646,-3.8656,-3.8691,-3.878,-3.8785,-3.879,-3.8828,-3.8839,-3.8849,0,0,0,0,0,0,-3.8488,-3.8505,-3.8495,-3.8553,-3.8573,-3.8589,-3.862,-3.8608,-3.8635,-3.863,-3.8624,-3.8629,-3.8684,-3.8693,-3.8661,-3.8758,-3.8723,-3.8731,-3.8749,-3.8759,-3.8768,-3.8763,-3.8625,0,0,0,0,0,-3.8503,-3.8535,-3.8549,-3.86,-3.861,-3.8614,-3.8632,-3.8627,-3.8647,-3.8655,-3.8666,-3.8687,-3.8719,-3.874,-3.877,-3.8835,-3.8839,-3.8864,-3.8873,-3.888,-3.8885,-3.8921,-3.8932,-3.8811,-3.8811,-3.8811,0,0,-3.8533,-3.8547,-3.8568,-3.8607,-3.8622,-3.8656,-3.8621,-3.8659,-3.8684,-3.8661,-3.8711,-3.872,-3.8743,-3.8802,-3.8828,-3.8811,-3.8921,-3.8886,-3.8892,-3.8894,-3.8927,-3.8939,-3.8949,-3.8815,-3.8814,-3.8813,0,0,-3.8607,-3.8621,-3.8664,-3.868,-3.8702,-3.8705,-3.8716,-3.8735,-3.874,-3.879,-3.8774,-3.8805,-3.8861,-3.8878,-3.8894,-3.8977,-3.8962,-3.8987,-3.903,-3.9065,-3.9074,-3.9083,-3.9111,-3.9122,-3.8994,-3.8994,-3.8994,0,-3.8642,-3.8692,-3.8688,-3.8727,-3.8745,-3.8727,-3.8771,-3.8787,-3.8819,-3.8832,-3.8813,-3.8884,-3.8898,-3.896,-3.8981,-3.8995,-3.9007,-3.8983,-3.9073,-3.9082,-3.9089,-3.9117,-3.9128,-3.8997,-3.8996,-3.8996,-3.8996,0,-3.8734,-3.877,-3.8803,-3.8834,-3.8856,-3.8898,-3.8901,-3.8924,-3.8918,-3.8923,-3.8975,-3.8992,-3.9026,-3.9041,-3.9036,-3.9103,-3.9092,-3.9074,-3.9039,-3.9104,-3.9129,-3.914,-3.9001,-3.9,-3.8999,-3.8998,0,0,-3.8828,-3.8858,-3.887,-3.8884,-3.8909,-3.8937,-3.898,-3.9012,-3.9032,-3.9056,-3.9091,-3.914,-3.9123,-3.9142,-3.9139,-3.9169,-3.9234,-3.9147,-3.9147,-3.9161,-3.9309,-3.9322,-3.9334,-3.9225,-3.9227,-3.9229,-3.9307,0,-3.8902,-3.8974,-3.8972,-3.9039,-3.9073,-3.9058,-3.9094,-3.9114,-3.9121,-3.9151,-3.9159,-3.9194,-3.9169,-3.918,-3.921,-3.9219,-3.9263,-3.9214,-3.9257,-3.9259,-3.925,-3.9347,-3.936,-3.9433,-3.9317,-3.9319,-3.932,0,-3.8996,-3.9023,-3.9093,-3.9115,-3.9129,-3.9162,-3.9192,-3.9221,-3.9245,-3.9248,-3.927,-3.9262,-3.9306,-3.9272,-3.9333,-3.93,-3.9318,-3.9326,-3.9328,-3.933,-3.9292,-3.9351,-3.9456,-3.9467,-3.9336,-3.9335,-3.9334,0,-3.9056,-3.911,-3.9159,-3.9173,-3.9199,-3.9222,-3.9235,-3.9256,-3.9276,-3.9304,-3.9317,-3.935,-3.9368,-3.9394,-3.9396,-3.9371,-3.9457,-3.9424,-3.9461,-3.9461,-3.9477,-3.9476,-3.9585,-3.9493,-3.9492,-3.9492,-3.9492,0,-3.9137,-3.9181,-3.9187,-3.9217,-3.9266,-3.9265,-3.9313,-3.9324,-3.9343,-3.9376,-3.9366,-3.9397,-3.9399,-3.9431,-3.9434,-3.9483,-3.9492,-3.9496,-3.9495,-3.9495,-3.9495,-3.9505,-3.95,-3.9495,-3.9494,-3.9494,-3.9493,0,-3.9211,-3.9217,-3.927,-3.9291,-3.9298,-3.9333,-3.9351,-3.9381,-3.9388,-3.9429,-3.9439,-3.945,-3.9488,-3.9494,-3.9538,-3.954,-3.9599,-3.9594,-3.9591,-3.9589,-3.9626,-3.9622,-3.9745,-3.9761,-3.9659,-3.966,-3.9661,0,-3.9261,-3.9295,-3.932,-3.9341,-3.9354,-3.9388,-3.9409,-3.9411,-3.9433,-3.9464,-3.949,-3.9526,-3.9555,-3.9617,-3.9629,-3.9663,-3.9658,-3.9699,-3.9663,-3.9663,-3.9658,-3.9655,-3.9658,-3.9705,-3.9707,-3.9707,-3.9708,0,-3.935,-3.9352,-3.9382,-3.9414,-3.9439,-3.9465,-3.9489,-3.9507,-3.9512,-3.9538,-3.9576,-3.9599,-3.9645,-3.9681,-3.9716,-3.9729,-3.972,-3.972,-3.973,-3.9729,-3.9725,-3.9727,-3.9608,-3.9716,-3.9716,-3.9715,-3.9715,-3.9714,-3.9413,-3.9441,-3.9464,-3.9499,-3.9517,-3.954,-3.9569,-3.958,-3.9612,-3.9648,-3.9648,-3.969,-3.9715,-3.976,-3.9777,-3.981,-3.9797,-3.9812,-3.9815,-3.9819,-3.9822,-3.9722,-3.9817,-3.9817,-3.9816,-3.9816,-3.9816,0,-3.9499,-3.9514,-3.9546,-3.9579,-3.9607,-3.9597,-3.9624,-3.9647,-3.9684,-3.9708,-3.9737,-3.9782,-3.9818,-3.9835,-3.987,-3.9894,-3.9891,-3.9904,-3.9901,-3.9904,-3.9832,-3.9819,-3.9906,-3.9906,-3.9906,-3.9906,-3.9906,-3.9906,-3.9547,-3.9596,-3.9601,-3.9659,-3.9673,-3.9714,-3.973,-3.9752,-3.977,-3.982,-3.985,-3.9861,-3.9882,-3.992,-3.9953,-3.9957,-3.997,-3.9985,-3.9987,-3.9918,-3.9909,-3.99,-3.9888,-3.9988,-3.9988,-4.0056,-4.0057,-4.0057]},{"header":{"parameterUnit":"m.s-1","parameterCategory":1,"la1":30.2991,"la2":30.254,"lo1":-89.0895,"lo2":-89.0444,"dy":0.0017,"dx":0.0017,"nx":28,"ny":28,"refTime":"2024-03-23T03:00:00:Z","depth":0,"parameterNumber":3,"parameterNumberName":"V-component_of_WINDS"},"data":[0,0,0,0,0,0,0,0,0,0,0,0,0,0,0,0,0,0,0,0,0,0,0,0,0,0,0,0,0,0,0,0,0,0,0,0,0,0,0,0,0,0,0,0,0,0,0,0,0,0,0,0,0,0,0,0,0,0,4.0281,4.0282,0,4.0327,4.0327,4.0328,4.0371,4.0372,4.0373,4.0373,4.0416,4.0417,4.0417,0,0,0,0,0,0,0,0,0,0,0,0,0,4.0229,4.023,4.0281,4.0282,4.0282,4.0327,4.0327,4.0328,4.0371,4.0372,4.0373,4.0373,4.0416,4.0417,4.0417,0,0,0,0,0,0,0,0,0,0,0,0,0,4.0261,4.023,4.0281,4.0309,4.0313,4.0327,4.0327,4.0328,4.0371,4.0372,4.0373,4.0374,4.0416,4.0417,4.0418,4.0406,0,0,4.042,4.0421,0,0,0,0,0,0,0,0,4.0259,4.0263,4.0305,4.0308,4.0311,4.0344,4.0325,4.0354,4.0371,4.0349,4.0373,4.0374,4.0391,4.0394,4.0401,4.0408,4.041,4.042,4.0421,4.0421,4.0422,0,0,0,0,0,0,0,4.0257,4.0261,4.0299,4.0305,4.0309,4.0319,4.0325,4.0331,4.0365,4.0351,4.0354,4.0359,4.0393,4.04,4.0402,4.0411,4.042,4.0421,4.0422,4.0422,4.0413,4.0412,0,0,0,0,0,0,4.0251,4.0259,4.0298,4.0301,4.0287,4.0319,4.0325,4.0333,4.0365,4.037,4.0358,4.0361,4.0398,4.0401,4.0404,4.0394,4.0421,4.0422,4.0423,4.0413,4.0412,4.0411,0,0,0,0,0,0,4.025,4.0254,4.0296,4.0281,4.0287,4.0319,4.0327,4.0333,4.034,4.0371,4.0376,4.0359,4.0399,4.0403,4.0406,4.0396,4.0423,4.0424,4.0414,4.0413,4.0412,4.0373,0,0,0,0,0,0,4.0248,4.0253,4.025,4.028,4.0288,4.0298,4.0327,4.0333,4.0342,4.0346,4.0373,4.0378,4.04,4.0404,4.0407,4.0398,4.0424,4.0415,4.0414,4.0412,4.0375,4.037,4.0366,0,0,0,0,0,4.0246,4.0236,4.0249,4.0254,4.0284,4.0297,4.0301,4.0327,4.0341,4.0337,4.0357,4.0377,4.0397,4.0404,4.0408,4.0398,4.0416,4.0414,4.0412,4.0377,4.0371,4.0366,0,0,0,0,0,0,4.0201,4.024,4.0256,4.0255,4.0273,4.0304,4.0301,4.032,4.0333,4.0336,4.0367,4.0372,4.0372,4.0386,4.0394,4.039,4.0409,4.0408,4.0381,4.0376,4.0371,4.0368,4.0425,0,0,0,0,0,4.0191,4.02,4.0233,4.0229,4.0238,4.0268,4.0274,4.0293,4.0312,4.0319,4.0339,4.0356,4.0366,4.0372,4.0382,4.0377,4.0384,4.0373,4.0368,4.0364,4.0363,4.0362,4.0357,4.0405,4.0405,4.0406,0,0,4.0171,4.0193,4.0196,4.0221,4.0237,4.0244,4.0273,4.0279,4.0285,4.032,4.0325,4.034,4.036,4.036,4.0361,4.0371,4.0351,4.0362,4.0359,4.0359,4.036,4.0355,4.0351,4.0404,4.0404,4.0405,0,0,4.0137,4.0155,4.0155,4.0171,4.0195,4.0215,4.0215,4.0245,4.0256,4.0262,4.0289,4.0295,4.0312,4.0326,4.0335,4.0309,4.0328,4.0311,4.0288,4.0287,4.0283,4.028,4.0271,4.0267,4.031,4.031,4.031,0,4.0108,4.0122,4.0152,4.0157,4.0167,4.0201,4.0201,4.0214,4.024,4.0246,4.0257,4.028,4.0296,4.0299,4.0293,4.0299,4.03,4.0308,4.0281,4.0278,4.0276,4.0268,4.0264,4.0308,4.0308,4.0308,4.0308,0,4.0085,4.0094,4.0091,4.0117,4.0127,4.0129,4.0159,4.0165,4.0184,4.0202,4.0208,4.0229,4.0245,4.0248,4.0265,4.0254,4.026,4.0276,4.0296,4.0269,4.0261,4.0258,4.0304,4.0305,4.0306,4.0306,0,0,4.0024,4.0068,4.0066,4.0079,4.0109,4.0116,4.012,4.0138,4.0142,4.0159,4.0163,4.0177,4.0193,4.0204,4.0223,4.0222,4.02,4.0238,4.0239,4.0231,4.019,4.0177,4.0173,4.0213,4.0213,4.0212,4.0188,0,3.9996,4.0006,4.0034,4.0036,4.0044,4.0077,4.0081,4.0099,4.0117,4.0126,4.0146,4.0156,4.0176,4.0182,4.0183,4.0203,4.0193,4.0205,4.0217,4.0217,4.021,4.017,4.0156,4.0132,4.0186,4.0185,4.0185,0,3.9964,3.9981,3.9984,4.0015,4.002,4.0022,4.0041,4.005,4.0072,4.0085,4.0097,4.0119,4.0125,4.0144,4.0152,4.016,4.0166,4.0177,4.0177,4.0178,4.0199,4.017,4.0125,4.0122,4.0181,4.0181,4.0181,0,3.9919,3.9943,3.9948,3.9958,3.9994,3.9995,4.001,4.0033,4.0042,4.0058,4.0064,4.008,4.0089,4.01,4.0126,4.0137,4.0131,4.0152,4.0141,4.0141,4.0138,4.0138,4.0094,4.0142,4.0142,4.0142,4.0143,0,3.9885,3.9886,3.9929,3.9932,3.9934,3.9966,3.9966,3.9984,4.0004,4.0011,4.0039,4.0045,4.0078,4.0087,4.0107,4.0111,4.0114,4.0125,4.013,4.0122,4.0121,4.0127,4.0129,4.0142,4.0142,4.0142,4.0142,0,3.9835,3.9864,3.9872,3.9907,3.9915,3.9915,3.9944,3.9948,3.9968,3.9977,3.998,4.0012,4.0024,4.0051,4.007,4.0083,4.0082,4.0092,4.0075,4.0079,4.0067,4.0068,4.0025,4.0021,4.0072,4.0071,4.0071,0,3.9811,3.9813,3.9848,3.9856,3.987,3.9881,3.9891,3.9923,3.9932,3.9958,3.9958,3.9973,3.9987,4.0005,4.0029,4.0044,4.0054,4.0038,4.0056,4.0049,4.0054,4.0054,4.0054,4.0033,4.0033,4.0032,4.0032,0,3.9766,3.9781,3.9795,3.9815,3.9827,3.9843,3.9861,3.9865,3.99,3.9909,3.9923,3.9934,3.9954,3.9969,3.9987,4.0002,4.0022,4.0026,4.0025,4.0016,4.0007,4.0012,4.0064,4.0027,4.0027,4.0028,4.0028,4.0028,3.9729,3.9733,3.9759,3.9774,3.9791,3.9807,3.9813,3.9835,3.9848,3.9868,3.9886,3.9898,3.992,3.9948,3.9961,3.997,3.9981,3.9978,3.9978,3.9977,3.9973,4.0006,3.9974,3.9974,3.9974,3.9974,3.9974,0,3.9686,3.9705,3.9718,3.9744,3.9755,3.9776,3.9797,3.9805,3.9816,3.9836,3.9849,3.9865,3.988,3.9905,3.9922,3.9925,3.9935,3.9928,3.9928,3.9931,3.9963,3.9963,3.992,3.992,3.992,3.992,3.992,3.992,3.9665,3.9672,3.969,3.9706,3.9724,3.9738,3.9749,3.9764,3.978,3.9797,3.981,3.9827,3.9849,3.9868,3.9882,3.9889,3.9893,3.9884,3.9894,3.9923,3.9928,3.9933,3.9933,3.9884,3.9884,3.9861,3.9861,3.986]}]]